User: anonymous   Login
Location: Zagreb
(45.8000°N, 16.0000°E)
Time: 00:49:24
(UTC+01:00)
Language:

Vanguard 3 - Orbit

View from above orbital plane
View from above orbital plane
View from above satellite
View from above satellite

Ground track
Ground track

The orbit data is extracted from the following two-line orbital elements,

1    20U 59007A   20025.57047327 -.00000073  00000-0 -44230-4 0  9996
2    20  33.3544 334.6126 1667655 223.5089 122.1380 11.55686317213989
Epoch (UTC): 25 January 2020 13:41:28
Eccentricity: 0.1667655
inclination: 33.3544°
perigee height: 507 km
apogee height: 3263 km
right ascension of ascending node: 334.6126°
argument of perigee: 223.5089°
revolutions per day: 11.55686317
mean anomaly at epoch: 122.1380°
orbit number at epoch: 21398

The dashed part of the orbit path shows where the satellite is in the earth's shadow,  

DLR